[[{"header":{"parameterUnit":"m.s-1","parameterCategory":1,"la1":30.2991,"la2":30.254,"lo1":-89.0895,"lo2":-89.0444,"dy":0.0017,"dx":0.0017,"nx":28,"ny":28,"refTime":"2024-06-06T21:00:00:Z","depth":0,"parameterNumber":2,"parameterNumberName":"U-component_of_WINDS"},"data":[0,0,0,0,0,0,0,0,0,0,0,0,0,0,0,0,0,0,0,0,0,0,0,0,0,0,0,0,0,0,0,0,0,0,0,0,0,0,0,0,0,0,0,0,0,0,0,0,0,0,0,0,0,0,0,0,0,0,-1.3531,-1.3531,0,-1.3508,-1.3507,-1.3507,-1.351,-1.351,-1.3511,-1.3511,-1.3486,-1.3485,-1.3484,0,0,0,0,0,0,0,0,0,0,0,0,0,-1.3577,-1.3576,-1.3531,-1.3531,-1.3531,-1.3508,-1.3507,-1.3507,-1.351,-1.351,-1.3511,-1.3511,-1.3486,-1.3485,-1.3484,0,0,0,0,0,0,0,0,0,0,0,0,0,-1.3555,-1.3576,-1.3531,-1.3529,-1.3529,-1.3508,-1.3507,-1.3507,-1.351,-1.351,-1.3511,-1.3511,-1.3487,-1.3485,-1.3484,-1.3463,0,0,-1.3479,-1.3478,0,0,0,0,0,0,0,0,-1.3557,-1.3554,-1.353,-1.3529,-1.3529,-1.3512,-1.3514,-1.3492,-1.351,-1.3517,-1.3511,-1.3512,-1.3494,-1.3492,-1.3486,-1.3462,-1.3461,-1.3479,-1.3478,-1.3477,-1.3477,0,0,0,0,0,0,0,-1.3558,-1.3555,-1.3522,-1.353,-1.3529,-1.3529,-1.3527,-1.351,-1.3503,-1.3516,-1.3517,-1.3514,-1.3494,-1.3488,-1.3486,-1.346,-1.3479,-1.3478,-1.3477,-1.3476,-1.3414,-1.3413,0,0,0,0,0,0,-1.356,-1.3556,-1.3523,-1.3521,-1.3545,-1.3528,-1.3525,-1.3517,-1.3503,-1.3501,-1.3513,-1.3514,-1.349,-1.3488,-1.3485,-1.3457,-1.3477,-1.3476,-1.3475,-1.3414,-1.3414,-1.3413,0,0,0,0,0,0,-1.3561,-1.3557,-1.3524,-1.3539,-1.3534,-1.3526,-1.3517,-1.3516,-1.351,-1.3501,-1.3499,-1.3508,-1.3491,-1.3487,-1.3468,-1.3456,-1.3475,-1.3474,-1.3415,-1.3414,-1.3413,-1.3403,0,0,0,0,0,0,-1.3563,-1.3558,-1.355,-1.3538,-1.3534,-1.3507,-1.3517,-1.3515,-1.3508,-1.3508,-1.3496,-1.3494,-1.3491,-1.347,-1.3466,-1.3455,-1.3473,-1.3416,-1.3415,-1.3414,-1.3404,-1.3402,-1.3399,0,0,0,0,0,-1.3564,-1.3549,-1.355,-1.3546,-1.3524,-1.3507,-1.3504,-1.3501,-1.3507,-1.3498,-1.3492,-1.3494,-1.3459,-1.3468,-1.3464,-1.3452,-1.3417,-1.3415,-1.3414,-1.3405,-1.3402,-1.3399,0,0,0,0,0,0,-1.356,-1.3547,-1.3548,-1.3529,-1.3519,-1.3507,-1.3497,-1.3498,-1.3486,-1.3487,-1.3483,-1.348,-1.346,-1.3454,-1.3465,-1.3429,-1.3438,-1.3436,-1.3433,-1.343,-1.3428,-1.3429,-1.3471,0,0,0,0,0,-1.3557,-1.3544,-1.3534,-1.3517,-1.3512,-1.3505,-1.3498,-1.3496,-1.3485,-1.3481,-1.3473,-1.3462,-1.3448,-1.3439,-1.3426,-1.3404,-1.3399,-1.3393,-1.3391,-1.3389,-1.3386,-1.3371,-1.3367,-1.3407,-1.3407,-1.3407,0,0,-1.355,-1.3542,-1.3534,-1.3516,-1.3508,-1.3494,-1.3502,-1.3488,-1.3476,-1.3479,-1.3459,-1.3453,-1.3441,-1.3419,-1.3409,-1.3413,-1.3374,-1.3387,-1.3385,-1.3383,-1.3369,-1.3365,-1.3361,-1.3406,-1.3406,-1.3407,0,0,-1.353,-1.3523,-1.3508,-1.3499,-1.3487,-1.3482,-1.3478,-1.3466,-1.3462,-1.3442,-1.3443,-1.3429,-1.3406,-1.3396,-1.3388,-1.3362,-1.3363,-1.3358,-1.3345,-1.333,-1.3327,-1.3324,-1.3312,-1.3308,-1.3356,-1.3356,-1.3356,0,-1.3523,-1.3503,-1.35,-1.3484,-1.3475,-1.3477,-1.346,-1.3452,-1.3435,-1.3429,-1.3434,-1.3403,-1.3395,-1.3369,-1.3363,-1.3357,-1.3351,-1.3359,-1.3328,-1.3325,-1.3322,-1.3311,-1.3306,-1.3355,-1.3355,-1.3355,-1.3355,0,-1.3493,-1.3479,-1.3468,-1.3451,-1.3441,-1.3425,-1.3419,-1.3409,-1.3408,-1.3402,-1.338,-1.337,-1.3354,-1.3348,-1.3347,-1.3321,-1.3324,-1.3329,-1.3338,-1.3317,-1.3306,-1.3302,-1.3354,-1.3354,-1.3355,-1.3355,0,0,-1.3471,-1.3452,-1.3447,-1.3439,-1.3424,-1.3412,-1.3395,-1.3379,-1.3369,-1.3358,-1.3342,-1.3321,-1.3324,-1.3315,-1.3313,-1.33,-1.3277,-1.3306,-1.3306,-1.3299,-1.3245,-1.324,-1.3235,-1.3278,-1.3277,-1.3276,-1.3245,0,-1.3448,-1.3418,-1.3414,-1.3387,-1.3372,-1.3372,-1.3357,-1.3346,-1.3339,-1.3325,-1.3318,-1.3302,-1.3309,-1.3303,-1.3291,-1.3282,-1.3265,-1.3285,-1.3261,-1.326,-1.3262,-1.323,-1.3225,-1.3196,-1.3241,-1.324,-1.324,0,-1.3418,-1.3404,-1.3375,-1.336,-1.3354,-1.334,-1.3323,-1.331,-1.3297,-1.3293,-1.3281,-1.328,-1.3261,-1.3271,-1.3243,-1.3256,-1.3246,-1.3241,-1.3239,-1.3236,-1.3247,-1.3223,-1.3187,-1.3181,-1.3233,-1.3234,-1.3234,0,-1.3401,-1.3376,-1.3355,-1.3348,-1.333,-1.332,-1.3312,-1.3299,-1.3288,-1.3274,-1.3266,-1.325,-1.324,-1.3226,-1.322,-1.3229,-1.3191,-1.3202,-1.3185,-1.3185,-1.3176,-1.3177,-1.3136,-1.3174,-1.3174,-1.3174,-1.3174,0,-1.3375,-1.3357,-1.3347,-1.3334,-1.3312,-1.3307,-1.3286,-1.3279,-1.3266,-1.3251,-1.325,-1.3235,-1.3228,-1.3212,-1.3206,-1.3182,-1.3179,-1.3173,-1.3172,-1.3172,-1.3173,-1.3164,-1.3165,-1.3173,-1.3173,-1.3173,-1.3173,0,-1.3353,-1.3346,-1.3322,-1.3307,-1.3302,-1.3287,-1.3273,-1.326,-1.3253,-1.3233,-1.3228,-1.3217,-1.3197,-1.3189,-1.3165,-1.3162,-1.3133,-1.3134,-1.3137,-1.3136,-1.3119,-1.312,-1.307,-1.3062,-1.3107,-1.3107,-1.3106,0,-1.3336,-1.3322,-1.3304,-1.3294,-1.3285,-1.3268,-1.3257,-1.325,-1.3239,-1.322,-1.3208,-1.3188,-1.3172,-1.314,-1.3129,-1.311,-1.3109,-1.3093,-1.3106,-1.3106,-1.3106,-1.3106,-1.3103,-1.309,-1.309,-1.3089,-1.3089,0,-1.3306,-1.3302,-1.3287,-1.3268,-1.3254,-1.324,-1.3226,-1.3217,-1.3208,-1.3194,-1.3174,-1.3161,-1.3135,-1.3114,-1.3094,-1.3085,-1.3084,-1.3085,-1.3079,-1.3079,-1.308,-1.3076,-1.3128,-1.3086,-1.3086,-1.3086,-1.3087,-1.3087,-1.3285,-1.3271,-1.3255,-1.3237,-1.3225,-1.3211,-1.3196,-1.3187,-1.317,-1.3148,-1.3145,-1.3122,-1.3106,-1.3079,-1.3069,-1.3049,-1.3054,-1.3047,-1.3044,-1.3042,-1.3039,-1.3085,-1.3046,-1.3046,-1.3046,-1.3046,-1.3046,0,-1.3252,-1.3242,-1.3225,-1.3204,-1.3188,-1.319,-1.3173,-1.316,-1.3139,-1.3125,-1.3108,-1.3082,-1.3062,-1.3048,-1.3027,-1.3014,-1.3013,-1.3008,-1.3008,-1.3005,-1.3039,-1.3044,-1.3009,-1.3009,-1.3009,-1.3009,-1.3009,-1.3009,-1.3234,-1.3209,-1.3203,-1.3172,-1.3162,-1.3139,-1.3129,-1.3115,-1.3103,-1.3074,-1.3057,-1.3048,-1.3033,-1.301,-1.299,-1.2987,-1.2978,-1.2973,-1.2969,-1.3,-1.3004,-1.3007,-1.3012,-1.2971,-1.2971,-1.2937,-1.2937,-1.2936]},{"header":{"parameterUnit":"m.s-1","parameterCategory":1,"la1":30.2991,"la2":30.254,"lo1":-89.0895,"lo2":-89.0444,"dy":0.0017,"dx":0.0017,"nx":28,"ny":28,"refTime":"2024-06-06T21:00:00:Z","depth":0,"parameterNumber":3,"parameterNumberName":"V-component_of_WINDS"},"data":[0,0,0,0,0,0,0,0,0,0,0,0,0,0,0,0,0,0,0,0,0,0,0,0,0,0,0,0,0,0,0,0,0,0,0,0,0,0,0,0,0,0,0,0,0,0,0,0,0,0,0,0,0,0,0,0,0,0,-1.9205,-1.9205,0,-1.9245,-1.9246,-1.9246,-1.9274,-1.9274,-1.9274,-1.9274,-1.9313,-1.9314,-1.9314,0,0,0,0,0,0,0,0,0,0,0,0,0,-1.9148,-1.9149,-1.9205,-1.9205,-1.9206,-1.9245,-1.9246,-1.9246,-1.9274,-1.9274,-1.9274,-1.9274,-1.9312,-1.9313,-1.9314,0,0,0,0,0,0,0,0,0,0,0,0,0,-1.9179,-1.9149,-1.9205,-1.9224,-1.9226,-1.9245,-1.9246,-1.9246,-1.9274,-1.9274,-1.9274,-1.9275,-1.9312,-1.9313,-1.9315,-1.9316,0,0,-1.9318,-1.9319,0,0,0,0,0,0,0,0,-1.9177,-1.9181,-1.9221,-1.9223,-1.9225,-1.9255,-1.924,-1.927,-1.9274,-1.9256,-1.9274,-1.9275,-1.9293,-1.9296,-1.9303,-1.9318,-1.932,-1.9319,-1.9319,-1.932,-1.932,0,0,0,0,0,0,0,-1.9175,-1.9179,-1.9221,-1.9221,-1.9224,-1.923,-1.9235,-1.9246,-1.9272,-1.9257,-1.9259,-1.9264,-1.9294,-1.9301,-1.9304,-1.932,-1.9318,-1.932,-1.932,-1.9321,-1.9338,-1.9338,0,0,0,0,0,0,-1.917,-1.9177,-1.9219,-1.9222,-1.9202,-1.9231,-1.9236,-1.9245,-1.9272,-1.9276,-1.9264,-1.9265,-1.9299,-1.9302,-1.9305,-1.9308,-1.932,-1.9321,-1.9322,-1.9338,-1.9338,-1.9337,0,0,0,0,0,0,-1.9169,-1.9174,-1.9218,-1.92,-1.9206,-1.9231,-1.9241,-1.9246,-1.9253,-1.9277,-1.9281,-1.9266,-1.93,-1.9303,-1.9313,-1.931,-1.9322,-1.9323,-1.9338,-1.9338,-1.9338,-1.9314,0,0,0,0,0,0,-1.9167,-1.9173,-1.9174,-1.92,-1.9207,-1.9226,-1.9241,-1.9246,-1.9255,-1.9258,-1.9281,-1.9285,-1.93,-1.9311,-1.9314,-1.9312,-1.9324,-1.9339,-1.9338,-1.9338,-1.9316,-1.9313,-1.9311,0,0,0,0,0,-1.9165,-1.9166,-1.9174,-1.9179,-1.921,-1.9226,-1.923,-1.9248,-1.9255,-1.9256,-1.9272,-1.9284,-1.931,-1.9312,-1.9316,-1.9314,-1.9339,-1.9338,-1.9338,-1.9317,-1.9314,-1.9311,0,0,0,0,0,0,-1.9138,-1.9169,-1.9179,-1.9189,-1.9205,-1.923,-1.9232,-1.9245,-1.9258,-1.926,-1.9281,-1.9286,-1.9293,-1.9305,-1.9306,-1.9316,-1.9326,-1.9326,-1.9309,-1.9306,-1.9304,-1.9301,-1.9325,0,0,0,0,0,-1.9133,-1.9145,-1.9171,-1.9177,-1.9184,-1.9207,-1.9215,-1.9228,-1.9244,-1.9251,-1.9267,-1.9282,-1.9293,-1.93,-1.9313,-1.9318,-1.9322,-1.9318,-1.9316,-1.9314,-1.9313,-1.9316,-1.9314,-1.9335,-1.9335,-1.9335,0,0,-1.9123,-1.9142,-1.9148,-1.9172,-1.9186,-1.9196,-1.9212,-1.9223,-1.923,-1.9252,-1.9262,-1.9275,-1.9293,-1.93,-1.9304,-1.931,-1.9309,-1.9313,-1.9311,-1.9312,-1.9315,-1.9313,-1.9311,-1.9335,-1.9335,-1.9335,0,0,-1.9111,-1.9126,-1.9133,-1.9146,-1.9167,-1.9182,-1.9184,-1.9208,-1.9217,-1.9228,-1.9245,-1.9253,-1.9273,-1.9285,-1.9294,-1.9285,-1.9297,-1.9289,-1.9277,-1.9279,-1.9278,-1.9276,-1.9272,-1.9271,-1.9288,-1.9288,-1.9288,0,-1.9095,-1.9112,-1.9134,-1.9143,-1.9153,-1.9175,-1.918,-1.9192,-1.9215,-1.9221,-1.9227,-1.9252,-1.9266,-1.9276,-1.9274,-1.9281,-1.9282,-1.9286,-1.9276,-1.9275,-1.9274,-1.9271,-1.9269,-1.9287,-1.9287,-1.9287,-1.9287,0,-1.9092,-1.9104,-1.9106,-1.9129,-1.9139,-1.9146,-1.9168,-1.9176,-1.9188,-1.9202,-1.9212,-1.923,-1.9245,-1.9249,-1.9261,-1.926,-1.9263,-1.9273,-1.9283,-1.9271,-1.9268,-1.9267,-1.9285,-1.9286,-1.9286,-1.9286,0,0,-1.9063,-1.9098,-1.9098,-1.9109,-1.9134,-1.9142,-1.915,-1.9167,-1.9172,-1.9188,-1.9194,-1.921,-1.9219,-1.9229,-1.9242,-1.9245,-1.9236,-1.9254,-1.9255,-1.9249,-1.9236,-1.9228,-1.9226,-1.9244,-1.9244,-1.9244,-1.9234,0,-1.9053,-1.907,-1.9089,-1.9099,-1.9109,-1.913,-1.9137,-1.9152,-1.9165,-1.9175,-1.919,-1.9201,-1.9212,-1.9218,-1.9222,-1.9236,-1.9233,-1.9238,-1.9249,-1.925,-1.9243,-1.9225,-1.9216,-1.9206,-1.9233,-1.9233,-1.9233,0,-1.9044,-1.9059,-1.9069,-1.9093,-1.9098,-1.9104,-1.912,-1.913,-1.9148,-1.9157,-1.9168,-1.9183,-1.9191,-1.9201,-1.9212,-1.9215,-1.9221,-1.9229,-1.9229,-1.923,-1.924,-1.9224,-1.9203,-1.9201,-1.9231,-1.9232,-1.9232,0,-1.902,-1.9043,-1.9052,-1.9061,-1.9089,-1.9092,-1.9104,-1.9122,-1.913,-1.9144,-1.915,-1.9164,-1.9172,-1.9182,-1.92,-1.9205,-1.9209,-1.922,-1.9216,-1.9215,-1.9215,-1.9215,-1.9194,-1.9221,-1.9221,-1.9221,-1.9221,0,-1.9006,-1.9012,-1.9042,-1.9048,-1.9054,-1.9076,-1.9082,-1.9095,-1.9111,-1.9119,-1.9137,-1.9144,-1.9168,-1.9177,-1.9191,-1.9197,-1.9201,-1.9208,-1.9211,-1.9206,-1.9204,-1.9209,-1.921,-1.922,-1.922,-1.922,-1.922,0,-1.8981,-1.9001,-1.9013,-1.9039,-1.9045,-1.9049,-1.907,-1.9076,-1.9091,-1.91,-1.9104,-1.9126,-1.9138,-1.9157,-1.9174,-1.9183,-1.9187,-1.9194,-1.9181,-1.9183,-1.9178,-1.9177,-1.9158,-1.9156,-1.9185,-1.9185,-1.9184,0,-1.897,-1.8975,-1.9001,-1.9008,-1.902,-1.9031,-1.904,-1.9062,-1.907,-1.909,-1.9093,-1.9106,-1.9118,-1.9136,-1.9153,-1.9166,-1.9172,-1.9165,-1.9174,-1.9168,-1.9171,-1.917,-1.917,-1.9162,-1.9162,-1.9161,-1.9161,0,-1.8949,-1.8959,-1.8971,-1.8988,-1.8998,-1.9011,-1.9026,-1.903,-1.9055,-1.9063,-1.9076,-1.9085,-1.9103,-1.9116,-1.9131,-1.9142,-1.9155,-1.9158,-1.9158,-1.9151,-1.9143,-1.9146,-1.9174,-1.9158,-1.9158,-1.9159,-1.9159,-1.9159,-1.8929,-1.8934,-1.8954,-1.8967,-1.8981,-1.8994,-1.9,-1.9016,-1.9027,-1.9044,-1.9056,-1.9068,-1.9085,-1.9107,-1.9117,-1.9126,-1.9132,-1.9131,-1.9131,-1.913,-1.9128,-1.9143,-1.9129,-1.9129,-1.9129,-1.9129,-1.913,0,-1.8908,-1.8922,-1.8934,-1.8954,-1.8964,-1.8977,-1.8994,-1.9001,-1.9011,-1.9026,-1.9038,-1.9052,-1.9065,-1.9083,-1.9097,-1.91,-1.9106,-1.9103,-1.9102,-1.9104,-1.9122,-1.9121,-1.9098,-1.9098,-1.9098,-1.9098,-1.9098,-1.9098,-1.8898,-1.8907,-1.8919,-1.8935,-1.8948,-1.8961,-1.8969,-1.898,-1.8993,-1.9008,-1.9019,-1.9031,-1.9048,-1.9063,-1.9074,-1.9079,-1.9083,-1.9077,-1.9084,-1.91,-1.9103,-1.9106,-1.9105,-1.9078,-1.9078,-1.9065,-1.9065,-1.9065]}]]